Regional Weather Roundup
Issued by NWS

Home | Current Version | Previous Version | Text Only | Print | Product List | Glossary On
Versions: 1 2 3 4 5 6 7 8 9 10 11 12 13 14 15 16 17 18 19 20 21 22 23 24 25 26 27 28 29 30 31 32 33 34 35 36 37 38 39 40 41 42 43 44 45 46 47 48 49 50
000
ASUS44 KBMX 040110
RWRAL

ALABAMA REGIONAL WEATHER ROUNDUP
NATIONAL WEATHER SERVICE BIRMINGHAM AL
700 PM CST SAT DEC 03 2016

NOTE: "FAIR" INDICATES FEW OR NO CLOUDS BELOW 12,000 FEET
WITH NO SIGNIFICANT WEATHER AND/OR OBSTRUCTIONS TO VISIBILITY.

THE REMARK "TC" DENOTES TEMPERATURE IN DEGREES CELSIUS.

ALZ001>011-014-016>018-020-040200-
NORTH ALABAMA

CITY           SKY/WX    TMP DP  RH WIND       PRES   REMARKS
MUSCLE SHOALS  LGT RAIN  44  40  85 NE5       30.24S
HUNTSVILLE     LGT RAIN  46  43  89 E5        30.21F
DECATUR        LGT RAIN  44  44 100 CALM      30.23F
HALEYVILLE     LGT RAIN  42  40  92 E6        30.21S
GADSDEN        LGT RAIN  45  43  93 E5        30.22F
$$

ALZ012-013-022-023-030>036-040>044-040200-
WEST CENTRAL ALABAMA

CITY           SKY/WX    TMP DP  RH WIND       PRES   REMARKS
TUSCALOOSA     LGT RAIN  45  43  93 NE5       30.18F
$$

ALZ015-024>027-033>036-040>044-040200-
CENTRAL ALABAMA

CITY           SKY/WX    TMP DP  RH WIND       PRES   REMARKS
BIRMINGHAM     CLOUDY    45  42  89 NE9       30.20F
MONTGOMERY     CLOUDY    51  38  60 NE10      30.17F
SHELBY CO ARPT LGT RAIN  45  43  93 E6        30.18F
MAXWELL AFB    CLOUDY    49  44  81 NE8       30.16F
GREENVILLE     CLOUDY    53  35  50 NE7       30.15F
$$

ALZ019-021-028-029-037-038-045>048-040200-
EAST CENTRAL ALABAMA

CITY           SKY/WX    TMP DP  RH WIND       PRES   REMARKS
ANNISTON       LGT RAIN  45  41  86 E6        30.21F
ALEXANDER CITY DRIZZLE   50  48  93 E5        30.19F
AUBURN         LGT RAIN  46  42  86 E6        30.22S
$$

ALZ051>064-040200-
SOUTHWEST ALABAMA

CITY           SKY/WX    TMP DP  RH WIND       PRES   REMARKS
MOBILE         CLOUDY    58  38  47 E14       30.09S
BROOKLEY FIELD CLOUDY    61  41  47 E16       30.11S
EVERGREEN      CLOUDY    55  34  45 NE8       30.15S
$$

ALZ049-050-065>069-040200-
SOUTHEAST ALABAMA

CITY           SKY/WX    TMP DP  RH WIND       PRES   REMARKS
DOTHAN         CLOUDY    56  37  49 NE10      30.20S
OZARK          CLOUDY    57  34  42 NE10      30.16R
TROY           PTCLDY    53  34  48 E8        30.17F
EUFAULA        CLOUDY    56  36  47 N6        30.20R
$$



USA.gov is the U.S. government's official web portal to all federal, state and local government web resources and services.